Content
SEND FEEDBACK

Daily
Averages
Monthly
Summary
United States of America

UMATAC, GUAM


Home > North America > United States > Guam
Elevation: 190 feet     Latitude: 13 17N     Longitude: 144 40E

WEATHER
 
SELECT A DAY
Number of Records: 342,219;   Date Range: 1/1/95 - 8/28/14
 
SHARE

PRINT THIS DATA

[ ← Previous Day ]
WEATHER ALMANAC - MARCH 26, 2013
[ Next Day → ]
[ °C ]   °F
Weather ElementAverageHighLow
Temperature77.4 °F84.2 °F (2:00 pm)73.4 °F (8:41 am)
Dewpoint73.4 °F75.2 °F (9:56 am)71.6 °F (12:05 am)
Humidity87.8 %100 % (8:41 am)72 % (2:55 pm)
Barometer29.86 in29.90 in (9:14 am)29.79 in (2:55 pm)
Wind Speed15.9 mph21.9 mph (9:06 am)
Wind Gust31.1 mph (11:04 am)
Weather ElementAverage
Visibility8 mi
Wind DirectionENE (74.9 °)

Weather ElementTotal
Precipitation---
Cooling Degree Days13.8 (Base 65)
Growing Degree Days28.8 (Base 50)
Averaged from 128 records on March 26, 2013
WEATHER CONDITIONS BREAKOUT
WIND DIRECTION BREAKOUT
WEATHER BY HOUR - MARCH 26, 2013
[ °C ]   °F
Local TimeTemperatureDewpointHumidityBarometerVisibilityWind DirectionWind SpeedGust SpeedPrecipitationEventsConditions
12:05 AM77.0 °F71.6 °F83 %29.88 in10.0 miENE (60°)12.7 mphScattered Clouds
12:15 AM78.8 °F71.6 °F78 %29.88 in10.0 miENE (60°)12.7 mphMostly Cloudy
12:32 AM78.8 °F71.6 °F78 %29.87 in10.0 miNE (50°)15.0 mphScattered Clouds
12:35 AM78.8 °F73.4 °F83 %29.87 in10.0 miNE (50°)12.7 mphMostly Cloudy
12:46 AM78.8 °F71.6 °F78 %29.87 in10.0 miENE (60°)12.7 mphScattered Clouds
12:54 AM77.0 °F71.6 °F83 %29.86 in10.0 miNE (50°)15.0 mphMostly Cloudy
12:55 AM77.9 °F72.5 °F83 %29.86 in10.0 miNE (50°)13.8 mphMostly Cloudy
1:01 AM78.8 °F73.4 °F83 %29.86 in10.0 miENE (60°)12.7 mphScattered Clouds
1:12 AM77.0 °F71.6 °F83 %29.86 in10.0 miNE (50°)13.8 mphMostly Cloudy
1:24 AM77.0 °F73.4 °F89 %29.85 in10.0 miNE (50°)11.5 mphScattered Clouds
1:55 AM77.7 °F72.7 °F84 %29.84 in10.0 miNE (50°)13.8 mphScattered Clouds
2:00 AM77.0 °F73.4 °F89 %29.83 in10.0 miNE (50°)13.8 mphMostly Cloudy
2:08 AM78.8 °F71.6 °F78 %29.84 in10.0 miNE (50°)15.0 mphScattered Clouds
2:15 AM78.8 °F73.4 °F83 %29.83 in10.0 miNE (50°)12.7 mphMostly Cloudy
2:27 AM78.8 °F73.4 °F83 %29.83 in10.0 miNE (50°)15.0 mphScattered Clouds
2:36 AM78.8 °F73.4 °F83 %29.82 in10.0 miNE (50°)18.4 mphRainLight Rain
2:42 AM77.0 °F73.4 °F89 %29.82 in10.0 miENE (70°)17.3 mph25.3 mphRainLight Rain
2:47 AM77.0 °F73.4 °F89 %29.83 in10.0 miENE (70°)15.0 mphRainLight Rain
2:48 AM77.0 °F73.4 °F89 %29.83 in10.0 miENE (70°)15.0 mphMostly Cloudy
2:55 AM76.3 °F72.9 °F89 %29.83 inENE (70°)15.0 mphMostly Cloudy
3:05 AM75.2 °F73.4 °F94 %29.83 in10.0 miENE (70°)17.3 mphScattered Clouds
3:50 AM75.2 °F73.4 °F94 %29.82 in10.0 miNE (50°)15.0 mphMostly Cloudy
3:55 AM76.3 °F73.8 °F92 %29.82 in10.0 miNE (50°)17.3 mph24.2 mphMostly Cloudy
3:56 AM77.0 °F73.4 °F89 %29.82 in9.0 miENE (60°)20.7 mph24.2 mphRainLight Rain
4:08 AM75.2 °F73.4 °F94 %29.82 in10.0 miENE (70°)15.0 mphMostly Cloudy
4:12 AM75.2 °F73.4 °F94 %29.82 in10.0 miENE (60°)15.0 mphMostly Cloudy
4:15 AM75.2 °F73.4 °F94 %29.82 in10.0 miENE (60°)16.1 mphScattered Clouds
4:55 AM75.6 °F72.9 °F91 %29.83 in10.0 miENE (70°)12.7 mphScattered Clouds
5:04 AM75.2 °F73.4 °F94 %29.83 in10.0 miENE (70°)15.0 mphMostly Cloudy
5:45 AM75.2 °F71.6 °F89 %29.84 in10.0 miENE (60°)12.7 mphOvercast
5:46 AM75.2 °F71.6 °F89 %29.84 in10.0 miENE (60°)13.8 mphOvercast
5:48 AM75.2 °F73.4 °F94 %29.84 in10.0 miENE (60°)15.0 mphOvercast
5:55 AM75.0 °F72.5 °F92 %29.84 in10.0 miENE (60°)13.8 mphMostly Cloudy
6:04 AM75.2 °F73.4 °F94 %29.84 in10.0 miENE (60°)12.7 mphMostly Cloudy
6:09 AM75.2 °F73.4 °F94 %29.84 in10.0 miENE (60°)13.8 mphOvercast
6:26 AM75.2 °F73.4 °F94 %29.84 in10.0 miNE (50°)13.8 mphMostly Cloudy
6:55 AM75.7 °F73.0 °F91 %29.86 in10.0 miNE (50°)16.1 mphMostly Cloudy
7:11 AM75.2 °F73.4 °F94 %29.86 in10.0 miNE (50°)13.8 mphMostly Cloudy
7:25 AM77.0 °F73.4 °F89 %29.86 in10.0 miENE (60°)15.0 mphMostly Cloudy
7:34 AM77.0 °F73.4 °F89 %29.86 in10.0 miENE (60°)15.0 mphMostly Cloudy
7:45 AM77.0 °F73.4 °F89 %29.87 in10.0 miENE (60°)16.1 mphMostly Cloudy
7:54 AM77.0 °F73.4 °F89 %29.87 in10.0 miENE (60°)15.0 mphMostly Cloudy
7:55 AM77.0 °F73.2 °F88 %29.87 in10.0 miENE (60°)13.8 mphMostly Cloudy
7:57 AM77.0 °F73.4 °F89 %29.87 in10.0 miENE (60°)15.0 mphMostly Cloudy
8:21 AM77.0 °F73.4 °F89 %29.88 in0.8 miEast (90°)19.6 mph29.9 mphLight Drizzle
8:23 AM75.2 °F73.4 °F94 %29.88 in5.0 miEast (100°)19.6 mph29.9 mphLight Drizzle
8:25 AM75.2 °F73.4 °F94 %29.88 in3.0 miEast (100°)18.4 mph29.9 mphRainLight Rain
8:27 AM75.2 °F73.4 °F94 %29.88 in2.5 miESE (110°)18.4 mph29.9 mphRainRain
8:28 AM75.2 °F71.6 °F89 %29.89 in2.0 miEast (100°)16.1 mph29.9 mphRainRain
8:30 AM75.2 °F71.6 °F89 %29.89 in1.8 miEast (100°)16.1 mph26.5 mphRainRain
8:36 AM75.2 °F73.4 °F94 %29.89 in2.0 miEast (90°)16.1 mph23.0 mphRainLight Rain
8:39 AM75.2 °F73.4 °F94 %29.89 in2.5 miEast (90°)12.7 mph23.0 mphRainLight Rain
8:41 AM73.4 °F73.4 °F100 %29.89 in3.0 miEast (100°)12.7 mph20.7 mphRainLight Rain
8:46 AM75.2 °F73.4 °F94 %29.89 in4.0 miEast (100°)11.5 mphOvercast
8:47 AM75.2 °F73.4 °F94 %29.89 in4.0 miEast (100°)11.5 mphOvercast
8:48 AM75.2 °F73.4 °F94 %29.89 in4.0 miEast (90°)13.8 mphOvercast
8:54 AM75.2 °F73.4 °F94 %29.89 in3.0 miEast (100°)17.3 mph26.5 mphRainLight Rain
8:55 AM74.8 °F73.6 °F96 %29.89 in3.0 miEast (100°)18.4 mph26.5 mph0.00 inRainLight Rain
9:05 AM75.2 °F73.4 °F94 %29.89 in3.0 miESE (110°)19.6 mph28.8 mphRainLight Rain
9:06 AM75.2 °F73.4 °F94 %29.89 in2.5 miESE (110°)21.9 mph28.8 mphRainLight Rain
9:07 AM73.4 °F73.4 °F100 %29.89 in2.5 miESE (110°)21.9 mph28.8 mphRainLight Rain
9:09 AM73.4 °F73.4 °F100 %29.89 in2.0 miESE (110°)19.6 mph28.8 mphRainLight Rain
9:10 AM73.4 °F73.4 °F100 %29.89 in1.8 miESE (110°)18.4 mph28.8 mphRainLight Rain
9:14 AM73.4 °F73.4 °F100 %29.90 in1.2 miEast (100°)17.3 mph26.5 mphRainLight Rain
9:16 AM73.4 °F73.4 °F100 %29.90 in1.2 miEast (100°)15.0 mph26.5 mphRainHeavy Rain
9:23 AM73.4 °F73.4 °F100 %29.90 in1.5 miEast (100°)15.0 mph24.2 mphRainLight Rain
9:26 AM73.4 °F73.4 °F100 %29.90 in2.0 miEast (90°)13.8 mph24.2 mphRainLight Rain
9:27 AM73.4 °F73.4 °F100 %29.90 in2.5 miEast (90°)15.0 mph24.2 mphRainLight Rain
9:28 AM73.4 °F73.4 °F100 %29.90 in3.0 miEast (90°)15.0 mphRainLight Rain
9:32 AM73.4 °F73.4 °F100 %29.90 in3.0 miEast (90°)12.7 mphRainRain
9:37 AM73.4 °F73.4 °F100 %29.90 in2.5 miEast (90°)10.4 mphRainLight Rain
9:46 AM75.2 °F73.4 °F94 %29.90 in2.0 miEast (80°)15.0 mphRainRain
9:49 AM75.2 °F73.4 °F94 %29.90 in1.8 miEast (80°)16.1 mphRainRain
9:50 AM75.2 °F73.4 °F94 %29.90 in2.0 miEast (80°)16.1 mphRainRain
9:53 AM75.2 °F73.4 °F94 %29.89 in2.5 miEast (80°)15.0 mphRainRain
9:55 AM75.4 °F74.3 °F96 %29.89 in3.0 miEast (90°)17.3 mph0.00 inRainLight Rain
9:56 AM75.2 °F75.2 °F100 %29.89 in3.0 miEast (80°)18.4 mph24.2 mphRainLight Rain
9:58 AM75.2 °F75.2 °F100 %29.89 in5.0 miEast (90°)18.4 mph24.2 mphRainLight Rain
10:00 AM75.2 °F75.2 °F100 %29.89 in9.0 miEast (90°)19.6 mph27.6 mphOvercast
10:09 AM75.2 °F73.4 °F94 %29.90 in10.0 miEast (80°)17.3 mph27.6 mphOvercast
10:13 AM75.2 °F73.4 °F94 %29.90 in10.0 miEast (80°)17.3 mph27.6 mphMostly Cloudy
10:19 AM75.2 °F73.4 °F94 %29.90 in10.0 miEast (80°)18.4 mph25.3 mphMostly Cloudy
10:49 AM77.0 °F73.4 °F89 %29.88 in10.0 miEast (80°)21.9 mph26.5 mphMostly Cloudy
10:54 AM77.0 °F73.4 °F89 %29.89 in9.0 miEast (80°)17.3 mph26.5 mphMostly Cloudy
10:55 AM77.2 °F74.1 °F90 %29.89 in9.0 miENE (70°)19.6 mph27.6 mph0.00 inLight Drizzle
11:04 AM77.0 °F73.4 °F89 %29.89 in10.0 miENE (70°)20.7 mph31.1 mphMostly Cloudy
11:18 AM77.0 °F73.4 °F89 %29.88 in10.0 miEast (80°)17.3 mph23.0 mphMostly Cloudy
11:55 AM80.8 °F73.8 °F79 %29.86 in10.0 miEast (90°)19.6 mph25.3 mph0.00 inScattered Clouds
12:55 PM82.8 °F73.8 °F74 %29.83 in10.0 miEast (80°)15.0 mph24.2 mphScattered Clouds
1:26 PM82.4 °F75.2 °F79 %29.82 in10.0 miENE (70°)17.3 mph24.2 mphMostly Cloudy
1:27 PM82.4 °F75.2 °F79 %29.82 in10.0 miEast (80°)16.1 mph24.2 mphMostly Cloudy
1:30 PM82.4 °F75.2 °F79 %29.82 in10.0 miEast (80°)16.1 mph23.0 mphMostly Cloudy
1:34 PM82.4 °F75.2 °F79 %29.82 in10.0 miEast (80°)15.0 mph21.9 mphMostly Cloudy
1:45 PM82.4 °F75.2 °F79 %29.81 in10.0 miEast (80°)17.3 mphMostly Cloudy
1:52 PM82.4 °F73.4 °F74 %29.81 in10.0 miEast (90°)17.3 mphScattered Clouds
1:55 PM83.7 °F74.5 °F74 %29.81 in10.0 miEast (90°)17.3 mphScattered Clouds
2:00 PM84.2 °F75.2 °F74 %29.81 in10.0 miENE (70°)17.3 mph23.0 mphMostly Cloudy
2:06 PM82.4 °F73.4 °F74 %29.80 in10.0 miEast (80°)19.6 mph26.5 mphScattered Clouds
2:55 PM83.7 °F73.9 °F72 %29.79 in10.0 miENE (70°)19.6 mph24.2 mphPartly Cloudy
3:32 PM82.4 °F73.4 °F74 %29.80 in10.0 miENE (70°)19.6 mph25.3 mphMostly Cloudy
3:41 PM82.4 °F73.4 °F74 %29.79 in10.0 miEast (80°)19.6 mph26.5 mphMostly Cloudy
3:55 PM82.8 °F73.4 °F73 %29.80 in10.0 miENE (70°)20.7 mphPartly Cloudy
4:33 PM82.4 °F73.4 °F74 %29.81 in10.0 miENE (70°)18.4 mph24.2 mphMostly Cloudy
4:50 PM80.6 °F73.4 °F79 %29.81 in10.0 miEast (80°)17.3 mphScattered Clouds
4:54 PM80.6 °F73.4 °F79 %29.81 in10.0 miENE (70°)16.1 mphMostly Cloudy
4:55 PM81.1 °F73.4 °F77 %29.81 in10.0 miENE (70°)17.3 mphMostly Cloudy
5:05 PM80.6 °F73.4 °F79 %29.81 in10.0 miENE (70°)16.1 mphScattered Clouds
5:08 PM80.6 °F73.4 °F79 %29.81 in10.0 miENE (70°)17.3 mphMostly Cloudy
5:29 PM80.6 °F73.4 °F79 %29.82 in10.0 miEast (80°)16.1 mph25.3 mphScattered Clouds
5:55 PM79.9 °F72.9 °F79 %29.82 in10.0 miEast (80°)13.8 mphPartly Cloudy
6:32 PM78.8 °F73.4 °F83 %29.83 in10.0 miEast (80°)12.7 mphMostly Cloudy
6:51 PM78.8 °F73.4 °F83 %29.84 in10.0 miEast (80°)18.4 mphScattered Clouds
6:55 PM79.0 °F72.9 °F81 %29.84 in10.0 miEast (80°)15.0 mphScattered Clouds
7:55 PM78.8 °F72.5 °F81 %29.86 in10.0 miEast (80°)12.7 mph21.9 mphPartly Cloudy
8:55 PM78.4 °F73.0 °F83 %29.88 in10.0 miEast (80°)16.1 mphPartly Cloudy
9:54 PM78.8 °F73.4 °F83 %29.89 in10.0 miENE (70°)12.7 mphMostly Cloudy
9:55 PM78.3 °F73.6 °F85 %29.89 in10.0 miENE (70°)12.7 mphMostly Cloudy
9:57 PM78.8 °F73.4 °F83 %29.89 in10.0 miENE (70°)15.0 mphMostly Cloudy
10:09 PM78.8 °F73.4 °F83 %29.89 in10.0 miENE (70°)11.5 mph19.6 mphMostly Cloudy
10:13 PM78.8 °F73.4 °F83 %29.89 in10.0 miENE (70°)15.0 mph20.7 mphScattered Clouds
10:47 PM78.8 °F73.4 °F83 %29.89 in10.0 miENE (70°)15.0 mphMostly Cloudy
10:55 PM78.3 °F73.4 °F85 %29.89 in10.0 miENE (70°)16.1 mphMostly Cloudy
11:17 PM78.8 °F73.4 °F83 %29.88 in10.0 miENE (70°)17.3 mphMostly Cloudy
11:23 PM78.8 °F73.4 °F83 %29.88 in10.0 miENE (70°)18.4 mphMostly Cloudy
11:29 PM78.8 °F73.4 °F83 %29.88 in10.0 miENE (70°)15.0 mphMostly Cloudy
11:43 PM78.8 °F73.4 °F83 %29.88 in10.0 miENE (70°)16.1 mphMostly Cloudy
11:48 PM78.8 °F73.4 °F83 %29.88 in10.0 miENE (70°)13.8 mphMostly Cloudy
11:55 PM77.9 °F73.6 °F86 %29.88 in10.0 miENE (70°)13.8 mphMostly Cloudy
Hourly data recorded from PGUA, located miles away from Umatac, Guam







STORIES FROM OUR PARTNERS